| time (UTC) | temp F | wind direction | speed MPH | gust MPH | rain 1hr in | rain 24hr in | rain mn in | humidity % | barometer mb |
| 20260510180202 | 60 | 285 | 2.0 | 3.0 | 0.02 | 0.54 | 0.54 | 94 | 1012.2 |
| 20260510175206 | 60 | 305 | 1.0 | 2.0 | 0.04 | 0.51 | 0.54 | 94 | 1012.0 |
| 20260510174204 | 60 | 303 | 1.0 | 2.0 | 0.05 | 0.51 | 0.54 | 94 | 1012.1 |
| 20260510173202 | 60 | 303 | 1.0 | 2.0 | 0.06 | 0.51 | 0.54 | 94 | 1012.1 |
| 20260510172206 | 60 | 303 | 1.0 | 2.0 | 0.06 | 0.51 | 0.53 | 94 | 1012.1 |
| 20260510171207 | 60 | 303 | 1.0 | 2.0 | 0.07 | 0.51 | 0.52 | 94 | 1012.2 |
| 20260510170203 | 60 | 303 | 1.0 | 2.0 | 0.07 | 0.51 | 0.51 | 94 | 1012.2 |
| 20260510165202 | 61 | 303 | 0.0 | 0.0 | 0.07 | 0.44 | 0.50 | 94 | 1012.1 |
| 20260510164202 | 60 | 303 | 0.0 | 1.0 | 0.07 | 0.44 | 0.50 | 94 | 1012.2 |
| 20260510163202 | 60 | 303 | 0.0 | 2.0 | 0.06 | 0.44 | 0.48 | 94 | 1012.3 |
| 20260510162205 | 60 | 303 | 0.0 | 0.0 | 0.08 | 0.44 | 0.47 | 94 | 1012.2 |
| 20260510161204 | 60 | 303 | 0.0 | 1.0 | 0.09 | 0.44 | 0.46 | 93 | 1012.4 |
| 20260510160206 | 60 | 303 | 0.0 | 4.0 | 0.10 | 0.44 | 0.44 | 93 | 1012.3 |
| 20260510155205 | 61 | 289 | 2.0 | 4.0 | 0.11 | 0.35 | 0.43 | 93 | 1012.4 |
| 20260510154857 | 61 | 281 | 3.0 | 7.0 | 0.13 | 0.35 | 0.43 | 93 | 1012.5 |
| 20260510154846 | 61 | 296 | 3.0 | 11.0 | 0.13 | 0.35 | 0.42 | 93 | 1012.4 |
| 20260510152202 | 61 | 269 | 5.0 | 10.0 | 0.11 | 0.35 | 0.39 | 93 | 1012.6 |
| 20260510151201 | 61 | 289 | 5.0 | 9.0 | 0.09 | 0.35 | 0.37 | 93 | 1012.6 |
| 20260510150858 | 61 | 321 | 5.0 | 7.0 | 0.09 | 0.35 | 0.35 | 93 | 1012.4 |
| 20260510145156 | 61 | 288 | 2.0 | 3.0 | 0.06 | 0.26 | 0.31 | 92 | 1012.6 |
| 20260510144157 | 61 | 248 | 2.0 | 3.0 | 0.05 | 0.26 | 0.30 | 92 | 1012.6 |
| 20260510143158 | 62 | 234 | 1.0 | 2.0 | 0.07 | 0.26 | 0.29 | 92 | 1012.5 |
| 20260510142159 | 62 | 234 | 0.0 | 2.0 | 0.09 | 0.26 | 0.28 | 92 | 1012.4 |
| 20260510141156 | 62 | 234 | 1.0 | 3.0 | 0.11 | 0.26 | 0.28 | 92 | 1012.6 |
| 20260510140153 | 62 | 226 | 1.0 | 3.0 | 0.10 | 0.26 | 0.26 | 91 | 1012.5 |
| 20260510135856 | 62 | 213 | 1.0 | 2.0 | 0.11 | 0.15 | 0.26 | 92 | 1012.7 |
| 20260510134155 | 62 | 233 | 1.0 | 2.0 | 0.10 | 0.15 | 0.25 | 91 | 1012.7 |
| 20260510133835 | 62 | 233 | 0.0 | 4.0 | 0.07 | 0.15 | 0.22 | 90 | 1013.0 |
| 20260510132152 | 62 | 224 | 1.0 | 3.0 | 0.06 | 0.15 | 0.19 | 90 | 1013.1 |
| 20260510131151 | 63 | 254 | 0.0 | 2.0 | 0.02 | 0.15 | 0.17 | 89 | 1013.2 |
| 20260510131105 | 63 | 220 | 0.0 | 2.0 | 0.03 | 0.15 | 0.15 | 89 | 1013.1 |
| 20260510125235 | 65 | 147 | 0.0 | 2.0 | 0.08 | 0.13 | 0.15 | 87 | 1013.2 |
| 20260510125220 | 64 | 147 | 0.0 | 1.0 | 0.06 | 0.13 | 0.15 | 88 | 1012.9 |
| 20260510125154 | 63 | 148 | 0.0 | 2.0 | 0.06 | 0.13 | 0.15 | 89 | 1013.0 |
| 20260510122803 | 65 | 147 | 0.0 | 2.0 | 0.07 | 0.13 | 0.14 | 86 | 1013.3 |
| 20260510121241 | 65 | 151 | 1.0 | 4.0 | 0.07 | 0.13 | 0.14 | 83 | 1013.0 |
| 20260510120144 | 66 | 92 | 3.0 | 5.0 | 0.06 | 0.13 | 0.13 | 80 | 1012.7 |
| 20260510115142 | 67 | 135 | 0.0 | 1.0 | 0.02 | 0.07 | 0.09 | 77 | 1013.1 |
| 20260510114142 | 69 | 135 | 0.0 | 1.0 | 0.02 | 0.07 | 0.09 | 74 | 1013.3 |
| 20260510113142 | 69 | 135 | 0.0 | 3.0 | 0.00 | 0.07 | 0.07 | 71 | 1013.0 |
| 20260510112838 | 70 | 87 | 2.0 | 4.0 | 0.00 | 0.07 | 0.07 | 69 | 1013.0 |
| 20260510111144 | 70 | 104 | 2.0 | 5.0 | 0.00 | 0.07 | 0.07 | 69 | 1013.1 |
| 20260510110201 | 70 | 94 | 1.0 | 5.0 | 0.00 | 0.07 | 0.07 | 66 | 1013.1 |
| 20260510105144 | 70 | 104 | 2.0 | 7.0 | 0.00 | 0.07 | 0.07 | 64 | 1013.0 |
| 20260510104139 | 71 | 79 | 3.0 | 4.0 | 0.00 | 0.07 | 0.07 | 67 | 1012.9 |
| 20260510103141 | 70 | 79 | 2.0 | 4.0 | 0.00 | 0.07 | 0.07 | 61 | 1012.9 |
| 20260510102142 | 71 | 0 | 1.0 | 6.0 | 0.00 | 0.07 | 0.07 | 62 | 1013.0 |
| 20260510101841 | 71 | 25 | 4.0 | 9.0 | 0.00 | 0.07 | 0.07 | 64 | 1013.1 |
| 20260510100141 | 71 | 75 | 2.0 | 6.0 | 0.00 | 0.07 | 0.07 | 61 | 1013.1 |
| 20260510095139 | 71 | 56 | 2.0 | 7.0 | 0.00 | 0.07 | 0.07 | 66 | 1013.0 |
| 20260510094140 | 70 | 76 | 4.0 | 9.0 | 0.00 | 0.07 | 0.07 | 68 | 1013.1 |
| 20260510093139 | 69 | 72 | 2.0 | 5.0 | 0.00 | 0.07 | 0.07 | 68 | 1013.1 |
| 20260510092829 | 68 | 75 | 1.0 | 2.0 | 0.00 | 0.07 | 0.07 | 74 | 1013.1 |
| 20260510091140 | 67 | 125 | 2.0 | 3.0 | 0.00 | 0.07 | 0.07 | 80 | 1013.3 |
| 20260510090156 | 65 | 113 | 2.0 | 4.0 | 0.00 | 0.07 | 0.07 | 80 | 1013.4 |
| 20260510085138 | 64 | 151 | 0.0 | 1.0 | 0.00 | 0.07 | 0.07 | 78 | 1013.4 |
| 20260510084140 | 64 | 80 | 1.0 | 3.0 | 0.00 | 0.07 | 0.07 | 80 | 1013.4 |
| 20260510083139 | 63 | 213 | 1.0 | 4.0 | 0.00 | 0.07 | 0.07 | 85 | 1013.6 |
| 20260510082143 | 62 | 147 | 1.0 | 7.0 | 0.00 | 0.07 | 0.07 | 85 | 1013.6 |
| 20260510081139 | 62 | 86 | 6.0 | 9.0 | 0.00 | 0.07 | 0.07 | 86 | 1013.4 |
| 20260510080139 | 62 | 80 | 4.0 | 6.0 | 0.00 | 0.07 | 0.07 | 90 | 1013.6 |
| 20260510075138 | 61 | 104 | 3.0 | 7.0 | 0.00 | 0.07 | 0.07 | 91 | 1013.8 |
| 20260510074842 | 60 | 116 | 4.0 | 7.0 | 0.00 | 0.07 | 0.07 | 92 | 1014.1 |
| 20260510073138 | 60 | 158 | 1.0 | 5.0 | 0.00 | 0.07 | 0.07 | 92 | 1014.2 |
| 20260510072138 | 59 | 125 | 4.0 | 7.0 | 0.00 | 0.07 | 0.07 | 92 | 1014.0 |
| 20260510071826 | 59 | 79 | 2.0 | 4.0 | 0.00 | 0.07 | 0.07 | 93 | 1014.2 |
| 20260510070151 | 59 | 111 | 0.0 | 3.0 | 0.00 | 0.07 | 0.07 | 93 | 1014.2 |
| 20260510065831 | 58 | 175 | 1.0 | 2.0 | 0.00 | 0.07 | 0.07 | 93 | 1014.4 |
| 20260510064134 | 58 | 238 | 1.0 | 3.0 | 0.00 | 0.07 | 0.07 | 93 | 1014.3 |
| 20260510063140 | 58 | 28 | 0.0 | 4.0 | 0.00 | 0.07 | 0.07 | 93 | 1014.3 |
| 20260510062136 | 57 | 206 | 1.0 | 3.0 | 0.00 | 0.07 | 0.07 | 93 | 1014.4 |
| 20260510061136 | 57 | 233 | 2.0 | 5.0 | 0.00 | 0.07 | 0.07 | 93 | 1014.2 |
| 20260510060652 | 57 | 175 | 2.0 | 5.0 | 0.00 | 0.07 | 0.07 | 92 | 1014.1 |
| 20260510060303 | 57 | 130 | 3.0 | 5.0 | 0.00 | 0.07 | 0.07 | 92 | 1014.0 |
| 20260510054133 | 57 | 226 | 0.0 | 2.0 | 0.00 | 0.07 | 0.07 | 92 | 1014.3 |
| 20260510053136 | 57 | 240 | 0.0 | 3.0 | 0.00 | 0.07 | 0.07 | 92 | 1014.4 |
| 20260510052133 | 57 | 224 | 2.0 | 4.0 | 0.00 | 0.07 | 0.07 | 92 | 1014.5 |
| 20260510051139 | 57 | 233 | 1.0 | 4.0 | 0.00 | 0.07 | 0.07 | 91 | 1014.8 |
| 20260510050155 | 57 | 85 | 1.0 | 9.0 | 0.00 | 0.07 | 0.07 | 91 | 1014.8 |
| 20260510045140 | 57 | 83 | 9.0 | 11.0 | 0.00 | 0.07 | 0.07 | 91 | 1014.6 |
| 20260510044137 | 57 | 169 | 2.0 | 9.0 | 0.00 | 0.07 | 0.07 | 91 | 1014.7 |
| 20260510043135 | 57 | 224 | 1.0 | 7.0 | 0.00 | 0.07 | 0.07 | 92 | 1014.7 |
| 20260510042134 | 57 | 71 | 8.0 | 10.0 | 0.02 | 0.07 | 0.07 | 92 | 1014.6 |
| 20260510041134 | 57 | 71 | 3.0 | 4.0 | 0.05 | 0.07 | 0.07 | 91 | 1014.7 |
| 20260510040138 | 58 | 69 | 2.0 | 6.0 | 0.07 | 0.07 | 0.07 | 91 | 1014.7 |
| 20260510035131 | 57 | 148 | 1.0 | 3.0 | 0.07 | 0.00 | 0.07 | 90 | 1014.8 |
| 20260510034130 | 58 | 148 | 2.0 | 2.0 | 0.07 | 0.00 | 0.07 | 90 | 1014.7 |
| 20260510033626 | 58 | 283 | 1.0 | 4.0 | 0.07 | 0.00 | 0.07 | 90 | 1014.7 |
| 20260510032131 | 58 | 138 | 1.0 | 3.0 | 0.05 | 0.00 | 0.05 | 89 | 1014.5 |
| 20260510031158 | 58 | 138 | 2.0 | 5.0 | 0.02 | 0.00 | 0.02 | 89 | 1014.6 |
| 20260510030204 | 58 | 158 | 0.0 | 1.0 | 0.00 | 0.00 | 0.00 | 88 | 1014.6 |
| 20260510025144 | 58 | 158 | 0.0 | 2.0 | 0.00 | 0.00 | 0.00 | 88 | 1014.7 |
| 20260510024137 | 58 | 158 | 0.0 | 1.0 | 0.00 | 0.00 | 0.00 | 88 | 1014.6 |
| 20260510023135 | 57 | 158 | 0.0 | 2.0 | 0.00 | 0.00 | 0.00 | 88 | 1014.6 |
| 20260510022141 | 57 | 140 | 0.0 | 4.0 | 0.00 | 0.00 | 0.00 | 88 | 1014.5 |
| 20260510021134 | 57 | 100 | 1.0 | 2.0 | 0.00 | 0.00 | 0.00 | 88 | 1014.4 |
| 20260510020211 | 57 | 155 | 1.0 | 2.0 | 0.00 | 0.00 | 0.00 | 87 | 1014.4 |
| 20260510015143 | 58 | 266 | 2.0 | 3.0 | 0.00 | 0.00 | 0.00 | 87 | 1014.5 |
| 20260510014855 | 58 | 228 | 2.0 | 2.0 | 0.00 | 0.00 | 0.00 | 87 | 1014.6 |
| 20260510013904 | 58 | 134 | 1.0 | 4.0 | 0.00 | 0.00 | 0.00 | 87 | 1014.5 |
| 20260510012130 | 58 | 103 | 1.0 | 3.0 | 0.00 | 0.00 | 0.00 | 87 | 1014.5 |
| 20260510011907 | 58 | 130 | 1.0 | 3.0 | 0.00 | 0.00 | 0.00 | 87 | 1014.6 |
| 20260510010209 | 58 | 141 | 1.0 | 3.0 | 0.00 | 0.00 | 0.00 | 87 | 1014.6 |
| 20260510005842 | 58 | 228 | 1.0 | 3.0 | 0.00 | 0.00 | 0.00 | 87 | 1014.7 |
| 20260510004138 | 58 | 159 | 1.0 | 2.0 | 0.00 | 0.00 | 0.00 | 87 | 1015.0 |
| 20260510003132 | 58 | 159 | 0.0 | 1.0 | 0.00 | 0.00 | 0.00 | 87 | 1015.1 |
| 20260510002131 | 58 | 159 | 1.0 | 2.0 | 0.00 | 0.00 | 0.00 | 86 | 1015.2 |
| 20260510001138 | 58 | 159 | 0.0 | 1.0 | 0.00 | 0.00 | 0.00 | 86 | 1015.2 |
| 20260510000155 | 58 | 159 | 0.0 | 1.0 | 0.00 | 0.00 | 0.00 | 85 | 1015.4 |
| 20260509235126 | 58 | 159 | 0.0 | 2.0 | 0.00 | 0.00 | 0.00 | 85 | 1015.5 |
| 20260509234125 | 59 | 159 | 0.0 | 2.0 | 0.00 | 0.00 | 0.00 | 84 | 1015.6 |
| 20260509233129 | 59 | 159 | 1.0 | 3.0 | 0.00 | 0.00 | 0.00 | 84 | 1015.7 |
| 20260509232849 | 59 | 159 | 1.0 | 3.0 | 0.00 | 0.00 | 0.00 | 84 | 1015.4 |
| 20260509231913 | 59 | 93 | 1.0 | 3.0 | 0.00 | 0.00 | 0.00 | 84 | 1015.2 |
| 20260509230211 | 59 | 178 | 1.0 | 4.0 | 0.00 | 0.00 | 0.00 | 83 | 1015.3 |
| 20260509225130 | 60 | 148 | 1.0 | 3.0 | 0.00 | 0.00 | 0.00 | 83 | 1015.3 |
| 20260509224126 | 60 | 149 | 0.0 | 2.0 | 0.00 | 0.00 | 0.00 | 83 | 1015.4 |
| 20260509223128 | 60 | 149 | 2.0 | 3.0 | 0.00 | 0.00 | 0.00 | 83 | 1015.4 |
| 20260509222125 | 60 | 87 | 2.0 | 4.0 | 0.00 | 0.00 | 0.00 | 83 | 1015.4 |
| 20260509221823 | 60 | 180 | 0.0 | 0.0 | 0.00 | 0.00 | 0.00 | 83 | 1015.5 |
| 20260509220146 | 60 | 180 | 0.0 | 0.0 | 0.00 | 0.00 | 0.00 | 83 | 1015.6 |
| 20260509215749 | 60 | 180 | 0.0 | 0.0 | 0.00 | 0.00 | 0.00 | 83 | 1015.5 |
| 20260509214124 | 60 | 180 | 0.0 | 0.0 | 0.00 | 0.00 | 0.00 | 82 | 1015.7 |
| 20260509213124 | 60 | 180 | 0.0 | 0.0 | 0.00 | 0.00 | 0.00 | 82 | 1015.7 |
| 20260509212122 | 60 | 180 | 0.0 | 2.0 | 0.00 | 0.00 | 0.00 | 82 | 1015.7 |
| 20260509211123 | 60 | 180 | 0.0 | 2.0 | 0.00 | 0.00 | 0.00 | 82 | 1015.8 |
| 20260509210154 | 60 | 180 | 2.0 | 3.0 | 0.00 | 0.00 | 0.00 | 81 | 1015.9 |
| 20260509205128 | 60 | 180 | 1.0 | 2.0 | 0.00 | 0.00 | 0.00 | 81 | 1016.1 |
| 20260509204121 | 60 | 180 | 0.0 | 2.0 | 0.00 | 0.00 | 0.00 | 80 | 1016.3 |
| 20260509203119 | 61 | 180 | 0.0 | 2.0 | 0.00 | 0.00 | 0.00 | 79 | 1016.3 |
| 20260509202121 | 61 | 180 | 0.0 | 2.0 | 0.00 | 0.00 | 0.00 | 79 | 1016.3 |
| 20260509201124 | 61 | 180 | 0.0 | 2.0 | 0.00 | 0.00 | 0.00 | 78 | 1016.3 |
| 20260509200144 | 62 | 180 | 0.0 | 1.0 | 0.00 | 0.00 | 0.00 | 77 | 1016.1 |
| 20260509195122 | 62 | 180 | 0.0 | 2.0 | 0.00 | 0.00 | 0.00 | 76 | 1016.1 |
| 20260509194122 | 62 | 180 | 0.0 | 3.0 | 0.00 | 0.00 | 0.00 | 76 | 1016.0 |
| 20260509193126 | 63 | 134 | 1.0 | 2.0 | 0.00 | 0.00 | 0.00 | 75 | 1015.9 |
| 20260509192121 | 63 | 104 | 1.0 | 2.0 | 0.00 | 0.00 | 0.00 | 74 | 1015.8 |
| 20260509191121 | 63 | 104 | 1.0 | 4.0 | 0.00 | 0.00 | 0.00 | 73 | 1015.7 |
| 20260509190152 | 64 | 89 | 3.0 | 4.0 | 0.00 | 0.00 | 0.00 | 73 | 1015.5 |
| 20260509185122 | 64 | 111 | 2.0 | 4.0 | 0.00 | 0.00 | 0.00 | 73 | 1015.6 |
| 20260509184119 | 64 | 97 | 3.0 | 5.0 | 0.00 | 0.00 | 0.00 | 72 | 1015.6 |
| 20260509183116 | 64 | 99 | 4.0 | 6.0 | 0.00 | 0.00 | 0.00 | 72 | 1015.5 |